TimeMDT,TemperatureF,Dew PointF,Humidity,Sea Level PressureIn,VisibilityMPH,Wind Direction,Wind SpeedMPH,Gust SpeedMPH,PrecipitationIn,Events,Conditions,WindDirDegrees,DateUTC
12:00 AM,14,11,85,30.32,,North,9.2,,,,,0,2013-10-02 06:00:00
12:00 AM,14.2,11.5,89,30.32,-9999.0,North,9.2,-,N/A,,Unknown,360,2013-10-02 06:00:00
1:00 AM,13.8,11.3,90,30.34,-9999.0,North,8.1,-,N/A,,Unknown,10,2013-10-02 07:00:00
2:00 AM,13.8,11.5,90,30.35,-9999.0,North,3.5,-,N/A,,Unknown,360,2013-10-02 08:00:00
3:00 AM,10.9,7.7,87,30.36,-9999.0,WNW,3.5,-,N/A,,Unknown,300,2013-10-02 09:00:00
4:00 AM,9.1,7.0,91,30.37,-9999.0,WSW,8.1,-,N/A,,Unknown,240,2013-10-02 10:00:00
5:00 AM,9.1,6.8,90,30.37,-9999.0,West,5.8,-,N/A,,Unknown,260,2013-10-02 11:00:00
6:00 AM,10,8,86,30.37,,West,6.9,,,,,270,2013-10-02 12:00:00
6:00 AM,9.9,7.7,91,30.37,-9999.0,West,6.9,-,N/A,,Unknown,270,2013-10-02 12:00:00
7:00 AM,9.9,8.1,92,30.38,-9999.0,West,5.8,-,N/A,,Unknown,270,2013-10-02 13:00:00
8:00 AM,9.5,7.3,91,30.38,-9999.0,WSW,6.9,-,N/A,,Unknown,240,2013-10-02 14:00:00
9:00 AM,12.6,10.4,91,30.39,-9999.0,West,6.9,-,N/A,,Unknown,270,2013-10-02 15:00:00
10:00 AM,13.6,11.1,90,30.39,-9999.0,WNW,5.8,-,N/A,,Unknown,300,2013-10-02 16:00:00
11:00 AM,16.5,13.3,87,30.40,-9999.0,NNW,6.9,-,N/A,,Unknown,340,2013-10-02 17:00:00
12:00 PM,16.0,12.7,87,30.41,-9999.0,North,4.6,-,N/A,,Unknown,10,2013-10-02 18:00:00
1:00 PM,17.4,14.0,86,30.41,-9999.0,North,4.6,-,N/A,,Unknown,350,2013-10-02 19:00:00
2:00 PM,16.5,12.7,85,-9999,-9999.0,WSW,8.1,-,N/A,,Unknown,250,2013-10-02 20:00:00
3:00 PM,16.0,12.6,86,30.42,-9999.0,West,8.1,-,N/A,,Unknown,260,2013-10-02 21:00:00
4:00 PM,15.6,12.7,88,30.43,-9999.0,WNW,8.1,-,N/A,,Unknown,290,2013-10-02 22:00:00
5:00 PM,14.9,11.8,88,30.43,-9999.0,West,8.1,-,N/A,,Unknown,270,2013-10-02 23:00:00
6:00 PM,12,10,86,30.42,,WSW,9.2,,,,,240,2013-10-03 00:00:00
6:00 PM,12.4,9.7,89,30.42,-9999.0,WSW,9.2,-,N/A,,Unknown,240,2013-10-03 00:00:00
8:00 PM,17.8,16.3,94,30.42,-9999.0,NNW,9.2,-,N/A,,Unknown,330,2013-10-03 02:00:00
9:00 PM,16.3,15.1,95,30.43,-9999.0,North,8.1,-,N/A,,Unknown,350,2013-10-03 03:00:00
10:00 PM,15.1,13.6,94,30.43,-9999.0,North,8.1,-,N/A,,Unknown,350,2013-10-03 04:00:00
11:00 PM,14.9,13.3,93,30.43,-9999.0,NNE,5.8,-,N/A,,Unknown,30,2013-10-03 05:00:00